Location: Helsinki
(60.1699°N, 24.9384°E)
Time: 23:59:01
(UTC+02:00)

Altair - Pass Details

Date: 03 November 2020
Orbit: 1502 x 1682 km, 47.2° (Epoch: 25 November)

Event Time Altitude Azimuth Distance (km) Brightness Sun altitude
Rises 07:31:02 0° 259° (W) 4,675 9.5 -2.8°
Reaches altitude 10° 07:34:19 10° 251° (WSW) 3,711 9.1 -2.5°
Maximum altitude 07:42:34 37° 190° (S) 2,286 8.7 -1.6°
Drops below altitude 10° 07:51:05 10° 128° (SE) 3,832 11.7 -0.6°
Sets 07:54:32 0° 121° (ESE) 4,843 15.4 -0.3°
